,,,PA_Meas_PMT16A,,PR_Meas_QMR101_102,,RH_Meas_QMH101,,SR_Meas_QMS101,,TA_Meas_QMH101,,GenWind,,GenWind,
date,time,status,PA,status,PR,status,RH,status,SR,status,TA,status,DirAvg,status,SpdAvg,
2012-06-18, 00:00:04,VALID,1002.13,VALID,0,VALID,94.8972,VALID,0,VALID,20.8941,VALID,31,VALID,0.376172,
2012-06-18, 00:01:04,VALID,1002.15,VALID,0,VALID,94.9354,VALID,0,VALID,20.8746,VALID,31,VALID,0.390234,
2012-06-18, 00:02:04,VALID,1002.13,VALID,0,VALID,94.9964,VALID,0,VALID,20.9152,VALID,39,VALID,0.541797,
2012-06-18, 00:03:04,VALID,1002.14,VALID,0,VALID,94.9277,VALID,0,VALID,20.8746,VALID,72,VALID,0.676562,
2012-06-18, 00:04:04,VALID,1002.14,VALID,0,VALID,94.882,VALID,0,VALID,20.9136,VALID,72,VALID,0.627734,
2012-06-18, 00:05:04,VALID,1002.18,VALID,0,VALID,94.7904,VALID,0,VALID,20.9737,VALID,128,VALID,0.793359,
2012-06-18, 00:06:04,VALID,1002.19,VALID,0,VALID,94.4928,VALID,0,VALID,20.9526,VALID,132,VALID,0.991797,
2012-06-18, 00:07:04,VALID,1002.16,VALID,0,VALID,94.3097,VALID,0,VALID,21.0111,VALID,132,VALID,0.544141,
2012-06-18, 00:08:04,VALID,1002.15,VALID,0,VALID,94.1266,VALID,0,VALID,21.0501,VALID,132,VALID,0.431641,
2012-06-18, 00:09:04,VALID,1002.1,VALID,0,VALID,94.0503,VALID,0,VALID,21.0696,VALID,132,VALID,0.15,
2012-06-18, 00:10:04,VALID,1002.08,VALID,0,VALID,93.9817,VALID,0,VALID,21.0891,VALID,132,VALID,0.510938,
2012-06-18, 00:11:04,VALID,1002.13,VALID,0,VALID,93.6688,VALID,0,VALID,21.0891,VALID,132,VALID,0.567969,
2012-06-18, 00:12:04,VALID,1002.12,VALID,0,VALID,92.8372,VALID,0,VALID,20.9721,VALID,132,VALID,0.402344,
2012-06-18, 00:13:04,VALID,1002.05,VALID,0,VALID,92.883,VALID,0,VALID,20.9331,VALID,50,VALID,1.19023,
2012-06-18, 00:14:04,VALID,1001.99,VALID,0,VALID,93.6841,VALID,0,VALID,20.9916,VALID,42,VALID,1.61953,
2012-06-18, 00:15:04,VALID,1002.01,VALID,0,VALID,93.6765,VALID,0,VALID,21.0306,VALID,42,VALID,1.43008,
2012-06-18, 00:16:04,VALID,1002.07,VALID,0,VALID,92.4939,VALID,0,VALID,20.8551,VALID,46,VALID,0.791016,
2012-06-18, 00:17:04,VALID,1002.07,VALID,0,VALID,92.7762,VALID,0,VALID,20.7966,VALID,46,VALID,1.17227,
2012-06-18, 00:18:04,VALID,1002.14,VALID,0,VALID,92.9669,VALID,0,VALID,20.7576,VALID,91,VALID,1.81484,
2012-06-18, 00:19:04,VALID,1002.09,VALID,0,VALID,93.3103,VALID,0,VALID,20.7381,VALID,80,VALID,1.27148,
2012-06-18, 00:20:04,VALID,1002.05,VALID,0,VALID,93.6154,VALID,0,VALID,20.7576,VALID,29,VALID,0.893359,
2012-06-18, 00:21:04,VALID,1002.1,VALID,0,VALID,93.6307,VALID,0,VALID,20.7381,VALID,357,VALID,0.648828,
2012-06-18, 00:22:04,VALID,1002.08,VALID,0,VALID,93.9435,VALID,0,VALID,20.7787,VALID,260,VALID,0.845312,
2012-06-18, 00:23:04,VALID,1002.03,VALID,0,VALID,94.2334,VALID,0,VALID,20.795,VALID,259,VALID,0.688672,
2012-06-18, 00:24:04,VALID,1002.02,VALID,0,VALID,94.3631,VALID,0,VALID,20.8551,VALID,333,VALID,1.02344,
2012-06-18, 00:25:04,VALID,1002,VALID,0,VALID,94.3403,VALID,0,VALID,20.8746,VALID,339,VALID,0.9875,
2012-06-18, 00:26:04,VALID,1001.99,VALID,0,VALID,94.1495,VALID,0,VALID,20.8535,VALID,355,VALID,0.890234,
2012-06-18, 00:27:04,VALID,1002.04,VALID,0,VALID,93.7528,VALID,0,VALID,20.7755,VALID,355,VALID,0.465625,
2012-06-18, 00:28:04,VALID,1002.02,VALID,0,VALID,93.3713,VALID,0,VALID,20.7186,VALID,355,VALID,0.405078,
2012-06-18, 00:29:04,VALID,1002.02,VALID,0,VALID,93.7909,VALID,0,VALID,20.7576,VALID,345,VALID,0.366016,
2012-06-18, 00:30:04,VALID,1001.99,VALID,0,VALID,94.058,VALID,0,VALID,20.7576,VALID,345,VALID,0.314063,
2012-06-18, 00:31:04,VALID,1001.99,VALID,0,VALID,94.2868,VALID,0,VALID,20.7966,VALID,345,VALID,0.74375,
2012-06-18, 00:32:04,VALID,1002,VALID,0,VALID,94.2868,VALID,0,VALID,20.8161,VALID,345,VALID,0.629297,
2012-06-18, 00:33:04,VALID,1001.98,VALID,0,VALID,94.3631,VALID,0,VALID,20.8356,VALID,345,VALID,0.223047,
2012-06-18, 00:34:04,VALID,1002,VALID,0,VALID,94.3479,VALID,0,VALID,20.8356,VALID,345,VALID,0.388281,
2012-06-18, 00:35:04,VALID,1001.97,VALID,0,VALID,94.3555,VALID,0,VALID,20.8551,VALID,345,VALID,0.215234,
2012-06-18, 00:36:04,VALID,1001.97,VALID,0,VALID,94.3708,VALID,0,VALID,20.8746,VALID,345,VALID,0.36875,
2012-06-18, 00:37:04,VALID,1001.95,VALID,0,VALID,94.3403,VALID,0,VALID,20.8941,VALID,345,VALID,0.374609,
2012-06-18, 00:38:04,VALID,1001.95,VALID,0,VALID,94.2411,VALID,0,VALID,20.9136,VALID,359,VALID,0.870703,
2012-06-18, 00:39:04,VALID,1001.91,VALID,0,VALID,93.9893,VALID,0,VALID,20.8941,VALID,17,VALID,1.21484,
2012-06-18, 00:40:04,VALID,1001.88,VALID,0,VALID,93.7528,VALID,0,VALID,20.8746,VALID,18,VALID,1.35117,
2012-06-18, 00:41:04,VALID,1001.89,VALID,0,VALID,93.0814,VALID,0,VALID,20.7966,VALID,29,VALID,1.13242,
2012-06-18, 00:42:04,VALID,1001.89,VALID,0,VALID,92.7304,VALID,0,VALID,20.6991,VALID,29,VALID,0.905469,
2012-06-18, 00:43:04,VALID,1001.86,VALID,0,VALID,92.7457,VALID,0,VALID,20.5806,VALID,29,VALID,0.700391,
2012-06-18, 00:44:04,VALID,1001.83,VALID,0,VALID,93.2874,VALID,0,VALID,20.5627,VALID,342,VALID,0.926172,
2012-06-18, 00:45:04,VALID,1001.84,VALID,0,VALID,93.6841,VALID,0,VALID,20.5432,VALID,58,VALID,0.526953,
2012-06-18, 00:46:04,VALID,1001.84,VALID,0,VALID,94.1114,VALID,0,VALID,20.5627,VALID,29,VALID,0.657812,
2012-06-18, 00:47:04,VALID,1001.8,VALID,0,VALID,94.2868,VALID,0,VALID,20.5822,VALID,29,VALID,0.356641,
2012-06-18, 00:48:04,VALID,1001.8,VALID,0,VALID,94.4394,VALID,0,VALID,20.6406,VALID,29,VALID,0.246094,
2012-06-18, 00:49:04,VALID,1001.82,VALID,0,VALID,94.4928,VALID,0,VALID,20.6601,VALID,29,VALID,0.00703125,
2012-06-18, 00:50:04,VALID,1001.77,VALID,0,VALID,94.531,VALID,0,VALID,20.7007,VALID,29,VALID,0.420312,
2012-06-18, 00:51:04,VALID,1001.78,VALID,0,VALID,94.3937,VALID,0,VALID,20.7186,VALID,29,VALID,0.588672,
2012-06-18, 00:52:04,VALID,1001.71,VALID,0,VALID,94.2182,VALID,0,VALID,20.7381,VALID,29,VALID,0.774219,
2012-06-18, 00:53:04,VALID,1001.72,VALID,0,VALID,94.1648,VALID,0,VALID,20.7771,VALID,26,VALID,0.876562,
2012-06-18, 00:54:04,VALID,1001.73,VALID,0,VALID,93.7833,VALID,0,VALID,20.7381,VALID,15,VALID,0.439844,
2012-06-18, 00:55:04,VALID,1001.76,VALID,0,VALID,93.6154,VALID,0,VALID,20.6991,VALID,15,VALID,0.173828,
2012-06-18, 00:56:04,VALID,1001.74,VALID,0,VALID,93.6383,VALID,0,VALID,20.6796,VALID,15,VALID,0.0449219,
2012-06-18, 00:57:04,VALID,1001.73,VALID,0,VALID,93.9359,VALID,0,VALID,20.6991,VALID,15,VALID,0.439063,
2012-06-18, 00:58:04,VALID,1001.7,VALID,0,VALID,94.1648,VALID,0,VALID,20.7381,VALID,15,VALID,0.809375,
2012-06-18, 00:59:04,VALID,1001.68,VALID,0,VALID,94.3326,VALID,0,VALID,20.7771,VALID,23,VALID,1.02188,
2012-06-18, 01:00:04,VALID,1001.76,VALID,0,VALID,94.2716,VALID,0,VALID,20.8161,VALID,23,VALID,0.498828,
2012-06-18, 01:01:04,VALID,1001.74,VALID,0,VALID,93.9206,VALID,0,VALID,20.7966,VALID,23,VALID,0.00859375,
2012-06-18, 01:02:04,VALID,1001.73,VALID,0,VALID,93.5544,VALID,0,VALID,20.7576,VALID,23,VALID,0.0363281,
2012-06-18, 01:03:04,VALID,1001.74,VALID,0,VALID,93.6841,VALID,0,VALID,20.7771,VALID,23,VALID,0.672656,
2012-06-18, 01:04:04,VALID,1001.76,VALID,0,VALID,93.8901,VALID,0,VALID,20.7966,VALID,23,VALID,0.223047,
2012-06-18, 01:05:04,VALID,1001.71,VALID,0,VALID,93.7451,VALID,0,VALID,20.7771,VALID,23,VALID,0.184766,
2012-06-18, 01:06:04,VALID,1001.69,VALID,0,VALID,93.3866,VALID,0,VALID,20.7381,VALID,23,VALID,0.189063,
2012-06-18, 01:07:04,VALID,1001.6,VALID,0,VALID,93.646,VALID,0,VALID,20.7576,VALID,353,VALID,0.982031,
2012-06-18, 01:08:04,VALID,1001.62,VALID,0,VALID,93.6536,VALID,0,VALID,20.7576,VALID,329,VALID,0.802734,
2012-06-18, 01:09:04,VALID,1001.64,VALID,0,VALID,93.7223,VALID,0,VALID,20.7771,VALID,264,VALID,0.547266,
2012-06-18, 01:10:04,VALID,1001.66,VALID,0,VALID,93.9588,VALID,0,VALID,20.8356,VALID,196,VALID,0.753516,
2012-06-18, 01:11:04,VALID,1001.64,VALID,0,VALID,93.9893,VALID,0,VALID,20.8941,VALID,134,VALID,1.33906,
2012-06-18, 01:12:04,VALID,1001.61,VALID,0,VALID,93.5239,VALID,0,VALID,20.9136,VALID,134,VALID,0.976172,
2012-06-18, 01:13:04,VALID,1001.59,VALID,0,VALID,93.1805,VALID,0,VALID,20.9526,VALID,138,VALID,1.51133,
2012-06-18, 01:14:04,VALID,1001.52,VALID,0,VALID,92.6923,VALID,0,VALID,21.0891,VALID,108,VALID,1.43672,
2012-06-18, 01:15:04,VALID,1001.56,VALID,0,VALID,91.7157,VALID,0,VALID,21.2061,VALID,117,VALID,2.28789,
2012-06-18, 01:16:04,VALID,1001.53,VALID,0,VALID,90.5178,VALID,0,VALID,21.3621,VALID,96,VALID,2.03008,
2012-06-18, 01:17:04,VALID,1001.53,VALID,0,VALID,89.5336,VALID,0,VALID,21.4401,VALID,81,VALID,2.18711,
2012-06-18, 01:18:04,VALID,1001.54,VALID,0,VALID,89.1674,VALID,0,VALID,21.4596,VALID,77,VALID,1.06953,
2012-06-18, 01:19:04,VALID,1001.51,VALID,0,VALID,89.381,VALID,0,VALID,21.4206,VALID,231,VALID,0.994922,
2012-06-18, 01:20:04,VALID,1001.51,VALID,0,VALID,89.5183,VALID,0,VALID,21.4401,VALID,227,VALID,0.691406,
2012-06-18, 01:21:04,VALID,1001.52,VALID,0,VALID,89.4802,VALID,0,VALID,21.4986,VALID,227,VALID,0.111719,
2012-06-18, 01:22:04,VALID,1001.5,VALID,0,VALID,89.1979,VALID,0,VALID,21.4791,VALID,227,VALID,0.1875,
2012-06-18, 01:23:04,VALID,1001.44,VALID,0,VALID,89.2666,VALID,0,VALID,21.4401,VALID,209,VALID,0.44375,
2012-06-18, 01:24:04,VALID,1001.43,VALID,0,VALID,89.5489,VALID,0,VALID,21.4011,VALID,123,VALID,1.0418,
2012-06-18, 01:25:04,VALID,1001.43,VALID,0,VALID,89.6557,VALID,0,VALID,21.4206,VALID,123,VALID,0.483203,
2012-06-18, 01:26:04,VALID,1001.39,VALID,0,VALID,89.9761,VALID,0,VALID,21.4401,VALID,114,VALID,0.939062,
2012-06-18, 01:27:04,VALID,1001.41,VALID,0,VALID,89.8693,VALID,0,VALID,21.4401,VALID,107,VALID,1.01016,
2012-06-18, 01:28:04,VALID,1001.42,VALID,0,VALID,90.1058,VALID,0,VALID,21.4596,VALID,107,VALID,0.798047,
2012-06-18, 01:29:04,VALID,1001.45,VALID,0,VALID,90.2508,VALID,0,VALID,21.4206,VALID,136,VALID,1.42227,
2012-06-18, 01:30:04,VALID,1001.43,VALID,0,VALID,90.7085,VALID,0,VALID,21.3816,VALID,141,VALID,0.772266,
2012-06-18, 01:31:04,VALID,1001.38,VALID,0,VALID,91.0366,VALID,0,VALID,21.3621,VALID,141,VALID,0.629687,
2012-06-18, 01:32:04,VALID,1001.4,VALID,0,VALID,90.8383,VALID,0,VALID,21.3231,VALID,74,VALID,0.620313,
2012-06-18, 01:33:04,VALID,1001.41,VALID,0,VALID,91.0366,VALID,0,VALID,21.2646,VALID,74,VALID,0.795313,
2012-06-18, 01:34:04,VALID,1001.42,VALID,0,VALID,91.0214,VALID,0,VALID,21.2061,VALID,74,VALID,0.821875,
2012-06-18, 01:35:04,VALID,1001.46,VALID,0,VALID,91.7004,VALID,0,VALID,21.1671,VALID,299,VALID,0.960156,
2012-06-18, 01:36:04,VALID,1001.41,VALID,0,VALID,92.204,VALID,0,VALID,21.1671,VALID,292,VALID,0.648047,
2012-06-18, 01:37:05,VALID,1001.39,VALID,0,VALID,92.1277,VALID,0,VALID,21.146,VALID,12,VALID,1.28281,
2012-06-18, 01:38:05,VALID,1001.45,VALID,0,VALID,91.8072,VALID,0,VALID,21.1281,VALID,20,VALID,0.737891,
2012-06-18, 01:39:05,VALID,1001.5,VALID,0,VALID,91.4944,VALID,0,VALID,21.0501,VALID,20,VALID,0.125,
2012-06-18, 01:40:05,VALID,1001.53,VALID,0,VALID,91.4868,VALID,0,VALID,20.9526,VALID,125,VALID,1.19414,
2012-06-18, 01:41:05,VALID,1001.43,VALID,0,VALID,91.9598,VALID,0,VALID,20.8941,VALID,40,VALID,1.66406,
2012-06-18, 01:42:05,VALID,1001.39,VALID,0,VALID,91.9064,VALID,0,VALID,20.8161,VALID,16,VALID,1.61992,
2012-06-18, 01:43:05,VALID,1001.4,VALID,0,VALID,91.9445,VALID,0,VALID,20.7381,VALID,4,VALID,1.35469,
2012-06-18, 01:44:05,VALID,1001.48,VALID,0,VALID,92.5091,VALID,0,VALID,20.6586,VALID,269,VALID,0.551172,
2012-06-18, 01:45:05,VALID,1001.45,VALID,0,VALID,93.0661,VALID,0,VALID,20.6796,VALID,201,VALID,0.385156,
2012-06-18, 01:46:05,VALID,1001.4,VALID,0,VALID,93.5391,VALID,0,VALID,20.6991,VALID,219,VALID,0.634375,
2012-06-18, 01:47:05,VALID,1001.48,VALID,0,VALID,93.707,VALID,0,VALID,20.7381,VALID,298,VALID,0.3625,
2012-06-18, 01:48:05,VALID,1001.45,VALID,0,VALID,93.6917,VALID,0,VALID,20.7186,VALID,298,VALID,0,
2012-06-18, 01:49:05,VALID,1001.46,VALID,0,VALID,93.7451,VALID,0,VALID,20.7381,VALID,298,VALID,0.539844,
2012-06-18, 01:50:05,VALID,1001.42,VALID,0,VALID,93.7528,VALID,0,VALID,20.7966,VALID,298,VALID,0.413672,
2012-06-18, 01:51:05,VALID,1001.39,VALID,0,VALID,93.7833,VALID,0,VALID,20.795,VALID,298,VALID,0.0742188,
2012-06-18, 01:52:05,VALID,1001.4,VALID,0,VALID,93.6231,VALID,0,VALID,20.8161,VALID,298,VALID,0.631641,
2012-06-18, 01:53:05,VALID,1001.4,VALID,0,VALID,93.5086,VALID,0,VALID,20.795,VALID,72,VALID,0.865625,
2012-06-18, 01:54:05,VALID,1001.39,VALID,0,VALID,93.5849,VALID,0,VALID,20.8551,VALID,79,VALID,0.847266,
2012-06-18, 01:55:05,VALID,1001.39,VALID,0,VALID,93.4552,VALID,0,VALID,20.8941,VALID,79,VALID,0.560156,
2012-06-18, 01:56:05,VALID,1001.4,VALID,0,VALID,93.1424,VALID,0,VALID,20.8941,VALID,79,VALID,0.721484,
2012-06-18, 01:57:05,VALID,1001.39,VALID,0,VALID,92.3489,VALID,0,VALID,20.8161,VALID,61,VALID,0.963672,
2012-06-18, 01:58:05,VALID,1001.39,VALID,0,VALID,92.0132,VALID,0,VALID,20.7171,VALID,43,VALID,1.06055,
2012-06-18, 01:59:05,VALID,1001.42,VALID,0,VALID,92.4557,VALID,0,VALID,20.6391,VALID,73,VALID,1.06016,
2012-06-18, 02:00:05,VALID,1001.39,VALID,0,VALID,92.7762,VALID,0,VALID,20.5822,VALID,81,VALID,1.40859,
2012-06-18, 02:01:05,VALID,1001.45,VALID,0,VALID,93.3408,VALID,0,VALID,20.5432,VALID,105,VALID,1.08516,
2012-06-18, 02:02:05,VALID,1001.41,VALID,0,VALID,93.7528,VALID,0,VALID,20.4636,VALID,110,VALID,0.727734,
2012-06-18, 02:03:05,VALID,1001.41,VALID,0,VALID,93.9893,VALID,0,VALID,20.4441,VALID,110,VALID,0.240625,
2012-06-18, 02:04:05,VALID,1001.42,VALID,0,VALID,94.1877,VALID,0,VALID,20.4862,VALID,110,VALID,0.242188,
2012-06-18, 02:05:05,VALID,1001.43,VALID,0,VALID,94.325,VALID,0,VALID,20.4652,VALID,110,VALID,0,
2012-06-18, 02:06:05,VALID,1001.43,VALID,0,VALID,94.4165,VALID,0,VALID,20.4246,VALID,110,VALID,0,
2012-06-18, 02:07:05,VALID,1001.39,VALID,0,VALID,94.47,VALID,0,VALID,20.4262,VALID,110,VALID,0.00429688,
2012-06-18, 02:08:05,VALID,1001.38,VALID,0,VALID,94.6454,VALID,0,VALID,20.4457,VALID,110,VALID,0.266797,
2012-06-18, 02:09:05,VALID,1001.36,VALID,0,VALID,94.7599,VALID,0,VALID,20.4652,VALID,110,VALID,0.485547,
2012-06-18, 02:10:05,VALID,1001.32,VALID,0,VALID,94.7446,VALID,0,VALID,20.4262,VALID,106,VALID,0.55625,
2012-06-18, 02:11:05,VALID,1001.34,VALID,0,VALID,94.7675,VALID,0,VALID,20.4457,VALID,80,VALID,0.748828,
2012-06-18, 02:12:05,VALID,1001.3,VALID,0,VALID,94.798,VALID,0,VALID,20.4457,VALID,53,VALID,0.979688,
2012-06-18, 02:13:05,VALID,1001.28,VALID,0,VALID,94.8743,VALID,0,VALID,20.4246,VALID,53,VALID,0.712109,
2012-06-18, 02:14:05,VALID,1001.28,VALID,0,VALID,94.882,VALID,0,VALID,20.4246,VALID,53,VALID,0.274219,
2012-06-18, 02:15:05,VALID,1001.32,VALID,0,VALID,94.8285,VALID,0,VALID,20.3856,VALID,53,VALID,0,
2012-06-18, 02:16:05,VALID,1001.28,VALID,0,VALID,94.8285,VALID,0,VALID,20.3856,VALID,53,VALID,0.413281,
2012-06-18, 02:17:05,VALID,1001.23,VALID,0,VALID,94.9735,VALID,0,VALID,20.4262,VALID,61,VALID,0.764844,
2012-06-18, 02:18:05,VALID,1001.26,VALID,0,VALID,95.0651,VALID,0,VALID,20.4441,VALID,70,VALID,0.758984,
2012-06-18, 02:19:05,VALID,1001.24,VALID,0,VALID,95.0269,VALID,0,VALID,20.4652,VALID,70,VALID,0.208984,
2012-06-18, 02:20:05,VALID,1001.24,VALID,0,VALID,94.9048,VALID,0,VALID,20.4051,VALID,70,VALID,0.250391,
2012-06-18, 02:21:05,VALID,1001.18,VALID,0,VALID,94.8514,VALID,0,VALID,20.4051,VALID,70,VALID,0.610156,
2012-06-18, 02:22:05,VALID,1001.18,VALID,0,VALID,94.8514,VALID,0,VALID,20.4262,VALID,47,VALID,0.874609,
2012-06-18, 02:23:05,VALID,1001.18,VALID,0,VALID,94.8896,VALID,0,VALID,20.4262,VALID,37,VALID,0.890234,
2012-06-18, 02:24:05,VALID,1001.17,VALID,0,VALID,94.882,VALID,0,VALID,20.4262,VALID,37,VALID,0.351172,
2012-06-18, 02:25:05,VALID,1001.18,VALID,0,VALID,94.8591,VALID,0,VALID,20.4051,VALID,37,VALID,0.0210938,
2012-06-18, 02:26:05,VALID,1001.17,VALID,0,VALID,94.8591,VALID,0,VALID,20.4262,VALID,37,VALID,0.0167969,
2012-06-18, 02:27:05,VALID,1001.17,VALID,0,VALID,94.8972,VALID,0,VALID,20.4457,VALID,37,VALID,0.403516,
2012-06-18, 02:28:05,VALID,1001.17,VALID,0,VALID,95.0345,VALID,0,VALID,20.5042,VALID,50,VALID,0.407031,
2012-06-18, 02:29:05,VALID,1001.22,VALID,0,VALID,95.149,VALID,0,VALID,20.5432,VALID,113,VALID,0.617578,
2012-06-18, 02:30:05,VALID,1001.18,VALID,0,VALID,95.2024,VALID,0,VALID,20.6211,VALID,163,VALID,1.02891,
2012-06-18, 02:31:05,VALID,1001.14,VALID,0,VALID,95.2711,VALID,0,VALID,20.7186,VALID,172,VALID,0.899219,
2012-06-18, 02:32:05,VALID,1001.12,VALID,0,VALID,95.2177,VALID,0,VALID,20.7771,VALID,165,VALID,0.555859,
2012-06-18, 02:33:05,VALID,1001.08,VALID,0,VALID,94.943,VALID,0,VALID,20.8551,VALID,133,VALID,1.23125,
2012-06-18, 02:34:05,VALID,1001.1,VALID,0,VALID,94.4852,VALID,0,VALID,20.9136,VALID,132,VALID,1.46016,
2012-06-18, 02:35:05,VALID,1001.08,VALID,0,VALID,93.768,VALID,0,VALID,20.9721,VALID,118,VALID,1.20391,
2012-06-18, 02:36:05,VALID,1001.11,VALID,0,VALID,93.0356,VALID,0,VALID,20.9721,VALID,94,VALID,1.04688,
2012-06-18, 02:37:05,VALID,1001.1,VALID,0,VALID,92.4328,VALID,0,VALID,20.9526,VALID,74,VALID,1.16406,
2012-06-18, 02:38:05,VALID,1001.1,VALID,0,VALID,92.0819,VALID,0,VALID,20.9136,VALID,73,VALID,0.934766,
2012-06-18, 02:39:05,VALID,1001.12,VALID,0,VALID,91.8911,VALID,0,VALID,20.8746,VALID,44,VALID,0.969141,
2012-06-18, 02:40:05,VALID,1001.08,VALID,0,VALID,91.8377,VALID,0,VALID,20.7966,VALID,25,VALID,0.96875,
2012-06-18, 02:41:05,VALID,1001.08,VALID,0,VALID,92.3718,VALID,0,VALID,20.7381,VALID,9,VALID,0.922656,
2012-06-18, 02:42:05,VALID,1001.05,VALID,0,VALID,92.8601,VALID,0,VALID,20.7381,VALID,5,VALID,0.398047,
2012-06-18, 02:43:05,VALID,1001.03,VALID,0,VALID,93.1195,VALID,0,VALID,20.7381,VALID,5,VALID,0.410937,
2012-06-18, 02:44:05,VALID,1001.04,VALID,0,VALID,93.2111,VALID,0,VALID,20.7186,VALID,5,VALID,0.407813,
2012-06-18, 02:45:05,VALID,1001.02,VALID,0,VALID,93.234,VALID,0,VALID,20.7381,VALID,5,VALID,0.259375,
2012-06-18, 02:46:05,VALID,1001.02,VALID,0,VALID,93.2568,VALID,0,VALID,20.7576,VALID,5,VALID,0.0582031,
2012-06-18, 02:47:05,VALID,1001.01,VALID,0,VALID,93.2263,VALID,0,VALID,20.7381,VALID,5,VALID,0.0445312,
2012-06-18, 02:48:05,VALID,1000.96,VALID,0,VALID,93.234,VALID,0,VALID,20.7576,VALID,5,VALID,0.153906,
2012-06-18, 02:49:05,VALID,1000.96,VALID,0,VALID,93.2263,VALID,0,VALID,20.7576,VALID,5,VALID,0,
2012-06-18, 02:50:05,VALID,1000.97,VALID,0,VALID,93.2721,VALID,0,VALID,20.7576,VALID,5,VALID,0,
2012-06-18, 02:51:05,VALID,1000.97,VALID,0,VALID,93.3408,VALID,0,VALID,20.7576,VALID,5,VALID,0,
2012-06-18, 02:52:05,VALID,1000.97,VALID,0,VALID,93.3255,VALID,0,VALID,20.7771,VALID,5,VALID,0,
2012-06-18, 02:53:05,VALID,1000.99,VALID,0,VALID,93.2874,VALID,0,VALID,20.7576,VALID,5,VALID,0.131641,
2012-06-18, 02:54:05,VALID,1001,VALID,0,VALID,93.234,VALID,0,VALID,20.7381,VALID,95,VALID,1.0625,
2012-06-18, 02:55:05,VALID,1001.01,VALID,0,VALID,93.2111,VALID,0,VALID,20.7771,VALID,88,VALID,1.10508,
2012-06-18, 02:56:05,VALID,1000.95,VALID,0,VALID,93.1424,VALID,0,VALID,20.7966,VALID,65,VALID,1.04961,
2012-06-18, 02:57:05,VALID,1000.93,VALID,0,VALID,92.6312,VALID,0,VALID,20.756,VALID,59,VALID,1.11523,
2012-06-18, 02:58:05,VALID,1000.92,VALID,0,VALID,92.6923,VALID,0,VALID,20.7576,VALID,53,VALID,0.757031,
2012-06-18, 02:59:05,VALID,1000.91,VALID,0,VALID,92.6465,VALID,0,VALID,20.6991,VALID,53,VALID,0.528125,
2012-06-18, 03:00:05,VALID,1000.92,VALID,0,VALID,92.7304,VALID,0,VALID,20.6796,VALID,53,VALID,0.421484,
2012-06-18, 03:01:05,VALID,1000.91,VALID,0,VALID,93.1271,VALID,0,VALID,20.6601,VALID,53,VALID,0.782422,
2012-06-18, 03:02:05,VALID,1000.92,VALID,0,VALID,93.4247,VALID,0,VALID,20.6601,VALID,53,VALID,0.779297,
2012-06-18, 03:03:05,VALID,1000.9,VALID,0,VALID,93.646,VALID,0,VALID,20.6991,VALID,53,VALID,0.756641,
2012-06-18, 03:04:05,VALID,1000.84,VALID,0,VALID,93.646,VALID,0,VALID,20.6796,VALID,27,VALID,1.30313,
2012-06-18, 03:05:05,VALID,1000.86,VALID,0,VALID,93.3866,VALID,0,VALID,20.6406,VALID,22,VALID,1.75273,
2012-06-18, 03:06:05,VALID,1000.87,VALID,0,VALID,93.089,VALID,0,VALID,20.5627,VALID,14,VALID,1.56367,
2012-06-18, 03:07:05,VALID,1000.89,VALID,0,VALID,93.0127,VALID,0,VALID,20.4652,VALID,14,VALID,0.922266,
2012-06-18, 03:08:05,VALID,1000.9,VALID,0,VALID,93.4018,VALID,0,VALID,20.4067,VALID,14,VALID,0.814453,
2012-06-18, 03:09:05,VALID,1000.93,VALID,0,VALID,93.6154,VALID,0,VALID,20.3677,VALID,14,VALID,0.566016,
2012-06-18, 03:10:05,VALID,1000.92,VALID,0,VALID,93.768,VALID,0,VALID,20.3287,VALID,14,VALID,0.685547,
2012-06-18, 03:11:05,VALID,1000.9,VALID,0,VALID,94.1266,VALID,0,VALID,20.3287,VALID,14,VALID,0.828906,
2012-06-18, 03:12:05,VALID,1000.89,VALID,0,VALID,94.3403,VALID,0,VALID,20.3287,VALID,14,VALID,0.942187,
2012-06-18, 03:13:05,VALID,1000.86,VALID,0,VALID,94.6912,VALID,0,VALID,20.3872,VALID,25,VALID,1.22109,
2012-06-18, 03:14:05,VALID,1000.91,VALID,0,VALID,94.8972,VALID,0,VALID,20.4472,VALID,31,VALID,1.33008,
2012-06-18, 03:15:05,VALID,1000.89,VALID,0,VALID,94.8972,VALID,0,VALID,20.4262,VALID,38,VALID,1.57266,
2012-06-18, 03:16:05,VALID,1000.9,VALID,0,VALID,94.798,VALID,0,VALID,20.4067,VALID,38,VALID,1.41914,
2012-06-18, 03:17:05,VALID,1000.88,VALID,0,VALID,94.737,VALID,0,VALID,20.3872,VALID,38,VALID,0.935938,
2012-06-18, 03:18:05,VALID,1000.88,VALID,0,VALID,94.6607,VALID,0,VALID,20.3482,VALID,23,VALID,0.853125,
2012-06-18, 03:19:05,VALID,1000.9,VALID,0,VALID,94.6836,VALID,0,VALID,20.3272,VALID,12,VALID,0.964453,
2012-06-18, 03:20:05,VALID,1000.87,VALID,0,VALID,94.8362,VALID,0,VALID,20.3272,VALID,9,VALID,1.11406,
2012-06-18, 03:21:05,VALID,1000.88,VALID,0,VALID,94.9735,VALID,0.104696,VALID,20.3662,VALID,16,VALID,0.957031,
2012-06-18, 03:22:05,VALID,1000.92,VALID,0,VALID,95.0193,VALID,0.104696,VALID,20.3856,VALID,24,VALID,1.18984,
2012-06-18, 03:23:05,VALID,1000.91,VALID,0,VALID,95.088,VALID,0.104696,VALID,20.4246,VALID,33,VALID,1.15195,
2012-06-18, 03:24:05,VALID,1000.9,VALID,0,VALID,95.1643,VALID,0.104696,VALID,20.4441,VALID,33,VALID,0.941406,
2012-06-18, 03:25:05,VALID,1000.89,VALID,0,VALID,95.1261,VALID,0,VALID,20.4847,VALID,33,VALID,0.731641,
2012-06-18, 03:26:05,VALID,1000.91,VALID,0,VALID,95.004,VALID,0.104696,VALID,20.4426,VALID,33,VALID,0.827734,
2012-06-18, 03:27:05,VALID,1000.91,VALID,0,VALID,94.9048,VALID,0.104696,VALID,20.4441,VALID,33,VALID,0.955469,
2012-06-18, 03:28:05,VALID,1000.96,VALID,0,VALID,94.7675,VALID,0,VALID,20.4652,VALID,32,VALID,1.22266,
2012-06-18, 03:29:05,VALID,1000.98,VALID,0,VALID,94.4471,VALID,0,VALID,20.3856,VALID,50,VALID,0.944531,
2012-06-18, 03:30:05,VALID,1001,VALID,0,VALID,94.3555,VALID,0,VALID,20.3662,VALID,61,VALID,1.57187,
2012-06-18, 03:31:05,VALID,1000.99,VALID,0,VALID,94.3631,VALID,0,VALID,20.3856,VALID,60,VALID,1.20859,
2012-06-18, 03:32:05,VALID,1000.98,VALID,0,VALID,94.3021,VALID,0.104696,VALID,20.3467,VALID,38,VALID,1.59258,
2012-06-18, 03:33:05,VALID,1000.98,VALID,0,VALID,94.3555,VALID,0,VALID,20.3272,VALID,34,VALID,1.91914,
2012-06-18, 03:34:05,VALID,1000.97,VALID,0,VALID,94.4852,VALID,0,VALID,20.3497,VALID,33,VALID,1.83516,
2012-06-18, 03:35:05,VALID,1000.97,VALID,0,VALID,94.592,VALID,0,VALID,20.3482,VALID,24,VALID,1.75898,
2012-06-18, 03:36:05,VALID,1000.93,VALID,0,VALID,94.6683,VALID,0,VALID,20.3287,VALID,28,VALID,1.55586,
2012-06-18, 03:37:05,VALID,1000.96,VALID,0,VALID,94.7217,VALID,0,VALID,20.3303,VALID,32,VALID,1.24258,
2012-06-18, 03:38:05,VALID,1000.94,VALID,0,VALID,94.737,VALID,0,VALID,20.3092,VALID,34,VALID,0.892187,
2012-06-18, 03:39:05,VALID,1000.97,VALID,0,VALID,94.7065,VALID,0,VALID,20.2913,VALID,69,VALID,1.15547,
2012-06-18, 03:40:05,VALID,1000.95,VALID,0,VALID,94.7141,VALID,0,VALID,20.2507,VALID,73,VALID,1.38672,
2012-06-18, 03:41:05,VALID,1000.94,VALID,0,VALID,94.8057,VALID,0,VALID,20.2702,VALID,73,VALID,1.31016,
2012-06-18, 03:42:05,VALID,1000.92,VALID,0,VALID,94.7751,VALID,0,VALID,20.2702,VALID,66,VALID,0.451562,
2012-06-18, 03:43:05,VALID,1000.94,VALID,0,VALID,94.7141,VALID,0,VALID,20.2523,VALID,66,VALID,0,
2012-06-18, 03:44:05,VALID,1000.91,VALID,0,VALID,94.6988,VALID,0,VALID,20.2117,VALID,66,VALID,0,
2012-06-18, 03:45:05,VALID,1000.89,VALID,0,VALID,94.676,VALID,0,VALID,20.1728,VALID,66,VALID,0,
2012-06-18, 03:46:05,VALID,1000.88,VALID,0,VALID,94.737,VALID,0,VALID,20.1922,VALID,66,VALID,0.396094,